Location: Cluny
(50.9333°N, 112.8167°W)
Time: 16:27:39
(UTC-06:00)

Amateur Radio Satellites - All Passes

Search period start: 26 September 2016 15:57
Search period end: 27 September 2016 15:57
Location: Cluny, 50.9333°N, 112.8167°W

Satellite Date Start Highest point End Downlink Frequencies (MHz)
Time Altitude Azimuth
Gurwin Techsat 1B 26 Sep 16:04:14 16:07:55 19° 272° (W) 16:11:36 435.225
ITAMSAT 1 26 Sep 16:06:38 16:11:36 47° 261° (W) 16:16:38 435.822/435.867
AIST 1 26 Sep 16:13:06 16:16:29 22° 66° (ENE) 16:19:50
SO-50 26 Sep 16:15:33 16:19:41 29° 118° (ESE) 16:23:47 436.795
O/OREOS (USA 219) 26 Sep 16:16:32 16:19:52 19° 42° (NE) 16:23:10 437.305
HORYU 2 26 Sep 16:20:29 16:23:35 19° 58° (ENE) 16:26:41 437.375
ITUPSAT 1 26 Sep 16:26:15 16:31:07 89° 126° (SE) 16:35:56 437.325
SWISSCUBE 26 Sep 16:40:18 16:45:04 63° 290° (WNW) 16:49:48 437.505
NOAA 18 26 Sep 16:47:24 16:49:20 12° 46° (NE) 16:51:17 137.9125
BEESAT 26 Sep 16:53:32 16:58:12 53° 291° (WNW) 17:02:52 436.000
TISAT 1 26 Sep 16:55:12 16:56:56 12° 305° (NW) 16:58:40 437.305
MOZHAYETS 4 26 Sep 16:55:53 17:00:16 40° 97° (E) 17:04:38
Cosmos 2504 26 Sep 16:56:28 17:03:34 55° 268° (W) 17:11:04 435.465 / 435.565
AO-7 26 Sep 17:01:05 17:08:57 45° 261° (W) 17:16:52 29.400- 29.500
Cosmos 2491 26 Sep 17:02:30 17:11:10 60° 287° (WNW) 17:19:56 435.465 / 435.565
YUBILEINY 26 Sep 17:03:06 17:09:55 27° 282° (WNW) 17:16:43 435.215
GOMX 1 26 Sep 17:22:53 17:26:55 22° 60° (ENE) 17:30:48 467.674
BRITE-PL 26 Sep 17:24:14 17:29:36 44° 67° (ENE) 17:34:50 437.365/2234.400
KKS-1 26 Sep 17:32:09 17:36:32 54° 101° (E) 17:40:52 437.445
GONETS M04 26 Sep 17:32:39 17:34:51 11° 34° (NE) 17:37:03
NOAA 15 26 Sep 17:43:51 17:48:39 36° 63° (ENE) 17:53:29 137.62
HO-68 26 Sep 17:49:38 17:53:32 16° 40° (NE) 17:57:26 435.675
AIST 1 26 Sep 17:50:13 17:54:21 46° 266° (W) 17:58:26
DOVE 4 26 Sep 17:52:35 17:55:53 18° 59° (ENE) 17:59:04 437.250
Cubesat XI-IV 26 Sep 17:54:42 17:59:30 36° 63° (ENE) 18:04:19 437.490
SO-50 26 Sep 17:55:12 17:59:57 57° 317° (NW) 18:04:39 436.795
O/OREOS (USA 219) 26 Sep 17:55:16 17:59:55 86° 244° (WSW) 18:04:31 437.305
CUTE-I 26 Sep 17:55:18 18:00:07 36° 63° (ENE) 18:04:58 437.470
HORYU 2 26 Sep 17:55:19 17:59:42 66° 257° (WSW) 18:04:08 437.375
LilacSat-2 26 Sep 17:56:41 17:59:50 26° 65° (ENE) 18:03:01 437.200
ITUPSAT 1 26 Sep 18:05:19 18:08:18 17° 305° (NW) 18:11:17 437.325
STARS 26 Sep 18:09:53 18:14:15 65° 102° (ESE) 18:18:35 437.465
CUBESAT XI-V 26 Sep 18:11:40 18:15:59 34° 95° (E) 18:20:14 437.345
Cosmos 2499 26 Sep 18:19:28 18:22:31 13° 46° (NE) 18:25:37 435.465 / 435.565
SWISSCUBE 26 Sep 18:20:10 18:21:57 12° 309° (NW) 18:23:46 437.505
NOAA 18 26 Sep 18:23:35 18:28:51 52° 67° (ENE) 18:34:10 137.9125
MOZHAYETS 4 26 Sep 18:33:17 18:37:20 30° 296° (WNW) 18:41:24
BEESAT 26 Sep 18:34:14 18:34:59 10° 311° (NW) 18:35:44 436.000
Cosmos 2504 26 Sep 18:53:26 18:55:18 11° 290° (WNW) 18:57:10 435.465 / 435.565
RS-15 26 Sep 18:53:43 18:58:20 13° 89° (E) 19:02:59 29.354- 29.394
GOMX 1 26 Sep 18:59:12 19:04:35 71° 258° (WSW) 19:09:42 467.674
BRITE-PL 26 Sep 19:02:52 19:08:07 37° 265° (W) 19:13:17 437.365/2234.400
Cosmos 2491 26 Sep 19:04:48 19:10:20 18° 314° (NW) 19:15:55 435.465 / 435.565
CUSAT 1 26 Sep 19:06:19 19:11:38 27° 81° (E) 19:17:41 437.405
KKS-1 26 Sep 19:09:23 19:12:47 22° 300° (WNW) 19:16:10 437.445
CINEMA 3 26 Sep 19:14:25 19:18:04 26° 64° (ENE) 19:21:37 145.822/145.860
NOAA 15 26 Sep 19:23:22 19:28:22 42° 262° (W) 19:33:26 137.62
GONETS M04 26 Sep 19:27:07 19:35:11 37° 63° (ENE) 19:43:09
DOVE 4 26 Sep 19:28:06 19:33:07 78° 257° (WSW) 19:37:52 437.250
LilacSat-2 26 Sep 19:30:40 19:34:04 31° 264° (W) 19:37:29 437.200
HO-68 26 Sep 19:32:53 19:39:45 52° 62° (ENE) 19:46:38 435.675
COMPASS 1 26 Sep 19:34:16 19:36:53 16° 59° (ENE) 19:39:31 437.405
Cubesat XI-IV 26 Sep 19:34:31 19:39:31 41° 262° (W) 19:44:34 437.490
CUTE-I 26 Sep 19:35:09 19:40:08 41° 262° (W) 19:45:10 437.470
O/OREOS (USA 219) 26 Sep 19:36:39 19:38:34 12° 263° (W) 19:40:29 437.305
SO-50 26 Sep 19:37:47 19:41:22 20° 340° (NNW) 19:44:55 436.795
STARS 26 Sep 19:47:09 19:50:11 19° 302° (WNW) 19:53:13 437.465
CUBESAT XI-V 26 Sep 19:49:05 19:53:21 35° 295° (WNW) 19:57:37 437.345
CUTE 1.7 + AOD 2 26 Sep 19:54:26 19:58:27 43° 69° (ENE) 20:02:30 437.475
CANX-2 26 Sep 19:55:18 19:59:24 49° 70° (ENE) 20:03:32 2200.000
SEEDS 26 Sep 19:58:40 20:02:30 35° 67° (ENE) 20:06:22 437.485
NOAA 18 26 Sep 20:05:04 20:09:48 29° 266° (W) 20:14:32 137.9125
Cosmos 2499 26 Sep 20:10:33 20:17:43 50° 71° (ENE) 20:25:21 435.465 / 435.565
STRAND 1 26 Sep 20:18:01 20:22:39 33° 95° (E) 20:27:16 437.568
DANDE 26 Sep 20:23:22 20:28:15 35° 86° (E) 20:34:28 436.750
AAUSAT CUBESAT 2 26 Sep 20:25:13 20:29:02 36° 67° (ENE) 20:32:54 437.432
CUBEBUG 2 26 Sep 20:30:44 20:34:39 40° 68° (ENE) 20:38:32 437.445
GOMX 1 26 Sep 20:41:33 20:43:29 12° 276° (W) 20:45:23 467.674
FUNcube-1 26 Sep 20:43:27 20:46:46 24° 63° (ENE) 20:50:07 145.935
CUSAT 1 26 Sep 20:46:17 20:52:46 77° 285° (WNW) 21:00:37 437.405
CINEMA 3 26 Sep 20:50:50 20:55:04 42° 262° (W) 20:59:11 145.822/145.860
UWE-3 26 Sep 20:51:37 20:55:34 43° 69° (ENE) 20:59:31 435.000/436.395/437.385
RS-15 26 Sep 20:56:25 21:07:31 53° 114° (ESE) 21:19:09 29.354- 29.394
COMPASS 1 26 Sep 21:07:46 21:11:56 71° 257° (WSW) 21:16:10 437.405
DOVE 4 26 Sep 21:09:42 21:11:30 12° 274° (W) 21:13:17 437.250
SO-50 26 Sep 21:20:39 21:23:31 16° 4° (N) 21:26:21 436.795
HO-68 26 Sep 21:20:57 21:27:38 41° 263° (W) 21:34:23 435.675
ZACube-1 26 Sep 21:23:48 21:27:53 60° 72° (ENE) 21:32:00 437.345
GONETS M04 26 Sep 21:23:55 21:32:38 66° 267° (W) 21:41:16
Oscar 11 26 Sep 21:24:09 21:28:23 60° 72° (ENE) 21:32:41 145.826/435.025
CUTE 1.7 + AOD 2 26 Sep 21:31:03 21:34:28 23° 268° (W) 21:37:56 437.475
CANX-2 26 Sep 21:32:20 21:35:32 21° 269° (W) 21:38:46 2200.000
SEEDS 26 Sep 21:34:34 21:38:15 29° 266° (W) 21:41:58 437.485
PRISM 26 Sep 21:48:25 21:51:51 24° 94° (E) 21:55:15 437.425
HUMSAT D 26 Sep 21:55:59 21:59:33 30° 65° (ENE) 22:03:10 437.325/437.525
AO-85 26 Sep 21:56:08 22:00:30 28° 118° (ESE) 22:04:39 145.980
DELFI C3 26 Sep 21:56:12 22:00:07 53° 71° (ENE) 22:04:04 145.870
STRAND 1 26 Sep 21:57:05 22:01:58 43° 294° (WNW) 22:06:48 437.568
ISS 26 Sep 21:58:42 22:01:15 21° 144° (SE) 22:03:48 145.825
AAUSAT CUBESAT 2 26 Sep 22:01:02 22:04:36 27° 266° (W) 22:08:12 437.432
Cosmos 2499 26 Sep 22:03:56 22:10:46 42° 272° (W) 22:18:03 435.465 / 435.565
DANDE 26 Sep 22:05:27 22:10:47 49° 293° (WNW) 22:17:44 436.750
CUBEBUG 2 26 Sep 22:08:01 22:11:26 24° 267° (W) 22:14:51 437.445
ESTCUBE 1 26 Sep 22:17:41 22:19:51 13° 54° (NE) 22:22:01 437.505/2401.250
FUNcube-1 26 Sep 22:18:56 22:22:51 41° 262° (W) 22:26:48 145.935
ANTELSAT 26 Sep 22:28:28 22:29:36 11° 86° (E) 22:30:43 437.575/2403.000
UWE-3 26 Sep 22:29:00 22:32:15 22° 268° (W) 22:35:31 435.000/436.395/437.385
CUBEBUG 1 26 Sep 22:30:39 22:32:04 11° 53° (NE) 22:33:29 437.445
CUSAT 1 26 Sep 22:31:00 22:36:17 22° 309° (NW) 22:42:08 437.405
TIGRISAT 26 Sep 22:48:00 22:50:45 16° 89° (E) 22:53:31 435.000
AUBIESAT-1 26 Sep 22:50:47 22:52:25 12° 52° (NE) 22:54:02 437.475
SO-50 26 Sep 23:01:30 23:05:30 27° 29° (NNE) 23:09:24 436.795
ZACube-1 26 Sep 23:01:58 23:04:36 16° 271° (W) 23:07:15 437.345
Oscar 11 26 Sep 23:02:01 23:04:56 18° 270° (W) 23:07:52 145.826/435.025
RS-15 26 Sep 23:08:02 23:19:52 67° 322° (NW) 23:32:13 29.354- 29.394
AISAT 26 Sep 23:13:20 23:16:45 22° 60° (ENE) 23:20:12 437.250
SPROUT 26 Sep 23:16:29 23:18:31 13° 56° (NE) 23:20:34 437.525
GONETS M04 26 Sep 23:22:52 23:27:39 16° 290° (WNW) 23:32:24
PRISM 26 Sep 23:23:24 23:27:17 40° 293° (WNW) 23:31:09 437.425
M-CUBED/EXP-1 PRIME 26 Sep 23:24:58 23:28:27 29° 60° (ENE) 23:31:44 437.505
UNISAT 6 26 Sep 23:27:17 23:31:24 38° 98° (E) 23:35:34 437.425
UKube-1 26 Sep 23:27:29 23:30:08 16° 57° (ENE) 23:32:47 .
HUMSAT D 26 Sep 23:31:28 23:35:08 32° 264° (W) 23:38:53 437.325/437.525
DELFI C3 26 Sep 23:32:34 23:35:16 17° 270° (W) 23:38:01 145.870
ISS 26 Sep 23:34:08 23:37:23 73° 162° (SSE) 23:40:40 145.825
AO-85 26 Sep 23:35:44 23:40:46 60° 316° (NW) 23:45:26 145.980
JAS-2 26 Sep 23:43:45 23:48:33 17° 80° (E) 23:53:16 435.910
50 SAT 26 Sep 23:47:24 23:50:42 33° 67° (ENE) 23:54:01 437.505
ESTCUBE 1 26 Sep 23:51:23 23:55:55 78° 73° (ENE) 00:00:30 437.505/2401.250
DX 1 26 Sep 23:52:20 23:56:11 31° 64° (ENE) 00:00:03 434.975-435.025
DANDE 26 Sep 23:52:48 23:55:51 14° 320° (NW) 23:59:12 436.750
NANOSAT C BR1 26 Sep 23:53:10 23:53:52 10° 86° (E) 23:54:34 145.865
VELOX 1 26 Sep 23:55:59 00:00:16 48° 69° (ENE) 00:04:34 145.980
ANTELSAT 27 Sep 00:02:36 00:07:01 82° 104° (ESE) 00:11:29 437.575/2403.000
CUBEBUG 1 27 Sep 00:03:09 00:07:33 68° 73° (ENE) 00:11:57 437.445
QB50P2 27 Sep 00:13:30 00:16:32 19° 91° (E) 00:19:34 145.880/145.840
POLYITAN 1 27 Sep 00:15:43 00:18:46 19° 91° (E) 00:21:47 437.675
AUBIESAT-1 27 Sep 00:22:24 00:26:25 87° 65° (ENE) 00:30:09 437.475
TIGRISAT 27 Sep 00:23:33 00:27:54 68° 287° (WNW) 00:32:19 435.000
TISAT 1 27 Sep 00:39:51 00:42:50 19° 60° (ENE) 00:45:49 437.305
SO-50 27 Sep 00:41:50 00:46:29 80° 231° (SW) 00:50:59 436.795
AISAT 27 Sep 00:48:33 00:52:55 54° 259° (W) 00:57:19 437.250
SPROUT 27 Sep 00:49:32 00:53:48 87° 74° (ENE) 00:58:06 437.525
DUCHIFAT 1 27 Sep 00:54:48 00:58:44 38° 98° (E) 01:02:39 145.980
QB50P1 27 Sep 00:55:36 00:59:39 44° 99° (E) 01:03:41 145.935-145.965
M-CUBED/EXP-1 PRIME 27 Sep 00:59:12 01:02:56 33° 256° (WSW) 01:06:26 437.505
UKube-1 27 Sep 01:01:19 01:05:38 78° 255° (WSW) 01:10:01 .
BUGSAT 1 27 Sep 01:02:26 01:05:28 20° 92° (E) 01:08:30 437.445
UNISAT 6 27 Sep 01:04:16 01:08:01 29° 296° (WNW) 01:11:50 437.425
POPSAT HIP 1 27 Sep 01:08:57 01:13:07 59° 101° (ESE) 01:17:17 437.405
Cosmos 2491 27 Sep 01:09:49 01:17:09 28° 57° (ENE) 01:24:25 435.465 / 435.565
ISS 27 Sep 01:10:39 01:13:55 77° 2° (N) 01:17:13 145.825
AO-85 27 Sep 01:18:26 01:22:04 20° 337° (NNW) 01:25:31 145.980
50 SAT 27 Sep 01:21:19 01:24:17 23° 266° (W) 01:27:17 437.505
RS-15 27 Sep 01:23:32 01:34:57 43° 354° (N) 01:46:38 29.354- 29.394
NANOSAT C BR1 27 Sep 01:26:04 01:30:17 84° 104° (ESE) 01:34:30 145.865
JAS-2 27 Sep 01:27:06 01:35:00 68° 101° (ESE) 01:42:38 435.910
DX 1 27 Sep 01:28:18 01:32:20 35° 263° (W) 01:36:23 434.975-435.025
ESTCUBE 1 27 Sep 01:30:43 01:33:18 15° 272° (W) 01:35:54 437.505/2401.250
VELOX 1 27 Sep 01:33:24 01:36:58 23° 267° (W) 01:40:33 145.980
ANTELSAT 27 Sep 01:40:37 01:43:11 16° 303° (WNW) 01:45:48 437.575/2403.000
CUBEBUG 1 27 Sep 01:41:30 01:44:18 16° 271° (W) 01:47:06 437.445
Oscar 19 27 Sep 01:45:11 01:48:11 15° 87° (E) 01:51:11 437.125/150
QB50P2 27 Sep 01:48:33 01:52:40 53° 290° (WNW) 01:56:47 145.880/145.840
POLYITAN 1 27 Sep 01:50:46 01:54:53 53° 290° (WNW) 01:59:00 437.675
BEESAT 2 27 Sep 01:54:01 01:56:06 14° 112° (ESE) 01:58:12 435.950
AUBIESAT-1 27 Sep 02:00:16 02:01:18 11° 265° (W) 02:02:21 437.475
ITUPSAT 1 27 Sep 02:01:00 02:05:04 29° 62° (ENE) 02:09:10 437.325
TIGRISAT 27 Sep 02:02:35 02:03:49 11° 306° (NW) 02:05:03 435.000
TISAT 1 27 Sep 02:13:59 02:18:07 58° 259° (WSW) 02:22:16 437.305
SWISSCUBE 27 Sep 02:14:14 02:18:40 40° 65° (ENE) 02:23:07 437.505
YUBILEINY 27 Sep 02:19:21 02:25:13 20° 73° (ENE) 02:31:03 435.215
SO-50 27 Sep 02:24:01 02:26:10 13° 251° (WSW) 02:28:18 436.795
BEESAT 27 Sep 02:27:11 02:31:44 46° 67° (ENE) 02:36:19 436.000
SPROUT 27 Sep 02:28:41 02:30:22 12° 273° (W) 02:32:04 437.525
MOZHAYETS 4 27 Sep 02:28:59 02:30:35 12° 52° (NE) 02:32:11
DUCHIFAT 1 27 Sep 02:30:47 02:34:18 26° 296° (WNW) 02:37:48 145.980
QB50P1 27 Sep 02:31:50 02:35:13 24° 298° (WNW) 02:38:35 145.935-145.965
Gurwin Techsat 1B 27 Sep 02:33:46 02:37:45 21° 90° (E) 02:41:42 435.225
BEESAT 3 27 Sep 02:36:05 02:39:56 59° 126° (SE) 02:43:51 437.485
BUGSAT 1 27 Sep 02:37:14 02:41:05 45° 291° (WNW) 02:44:55 437.445
UKube-1 27 Sep 02:42:08 02:42:27 10° 275° (W) 02:42:45 .
POPSAT HIP 1 27 Sep 02:45:34 02:48:32 19° 300° (WNW) 02:51:29 437.405
ISS 27 Sep 02:47:10 02:50:24 54° 202° (SSW) 02:53:38 145.825
KKS-1 27 Sep 03:00:45 03:03:17 15° 56° (NE) 03:05:49 437.445
AO-85 27 Sep 03:01:41 03:04:10 14° 2° (N) 03:06:33 145.980
NANOSAT C BR1 27 Sep 03:03:11 03:05:27 14° 303° (WNW) 03:07:42 145.865
Cosmos 2491 27 Sep 03:06:22 03:15:17 88° 260° (W) 03:24:07 435.465 / 435.565
JAS-2 27 Sep 03:12:34 03:19:33 37° 302° (WNW) 03:26:27 435.910
Oscar 19 27 Sep 03:23:02 03:28:15 88° 286° (WNW) 03:33:25 437.125/150
BEESAT 2 27 Sep 03:29:23 03:33:21 84° 311° (NW) 03:37:22 435.950
STARS 27 Sep 03:36:53 03:39:39 17° 57° (ENE) 03:42:25 437.465
ITUPSAT 1 27 Sep 03:38:10 03:42:44 45° 261° (W) 03:47:21 437.325
RS-15 27 Sep 03:38:39 03:50:40 53° 26° (NNE) 04:02:41 29.354- 29.394
CUBESAT XI-V 27 Sep 03:46:32 03:47:39 11° 51° (NE) 03:48:45 437.345
Cosmos 2504 27 Sep 03:49:43 03:55:16 24° 80° (E) 04:00:43 435.465 / 435.565
SWISSCUBE 27 Sep 03:52:19 03:56:33 31° 265° (W) 04:00:48 437.505
CUSAT 1 27 Sep 03:53:58 03:55:28 11° 34° (NNE) 03:56:58 437.405
MOZHAYETS 4 27 Sep 04:02:22 04:06:53 66° 72° (ENE) 04:11:29
BEESAT 27 Sep 04:05:44 04:09:44 26° 266° (W) 04:13:46 436.000
AIST 2 27 Sep 04:07:49 04:09:55 14° 111° (ESE) 04:12:04 435.215
YUBILEINY 27 Sep 04:11:49 04:20:36 79° 96° (E) 04:29:22 435.215
Gurwin Techsat 1B 27 Sep 04:12:55 04:18:14 70° 289° (WNW) 04:23:31 435.225
ITAMSAT 1 27 Sep 04:14:00 04:18:58 42° 98° (E) 04:23:54 435.822/435.867
BEESAT 3 27 Sep 04:14:31 04:17:53 26° 327° (NNW) 04:21:17 437.485
PCSat 27 Sep 04:18:53 04:20:52 12° 102° (ESE) 04:22:52 145.827
ISS 27 Sep 04:24:33 04:26:21 14° 221° (SW) 04:28:10 145.825
KKS-1 27 Sep 04:34:47 04:39:15 88° 261° (W) 04:43:44 437.445
AO-85 27 Sep 04:42:36 04:46:10 23° 26° (NNE) 04:49:31 145.980
AO-7 27 Sep 04:56:06 05:04:05 48° 100° (E) 05:12:02 29.400- 29.500
JAS-2 27 Sep 04:59:40 05:02:28 12° 325° (NW) 05:05:16 435.910
Oscar 19 27 Sep 05:03:33 05:06:54 18° 306° (NW) 05:10:13 437.125/150
Cosmos 2491 27 Sep 05:04:25 05:10:54 24° 284° (WNW) 05:17:24 435.465 / 435.565
BEESAT 2 27 Sep 05:08:43 05:11:44 20° 333° (NNW) 05:14:48 435.950
STARS 27 Sep 05:11:06 05:15:30 76° 256° (WSW) 05:19:54 437.465
DANDE 27 Sep 05:12:40 05:17:34 17° 45° (NE) 05:22:31 436.750
CUBESAT XI-V 27 Sep 05:19:27 05:24:04 58° 70° (ENE) 05:28:43 437.345
CUSAT 1 27 Sep 05:33:22 05:40:24 32° 59° (ENE) 05:46:45 437.405
Cosmos 2504 27 Sep 05:40:32 05:47:54 77° 282° (WNW) 05:55:06 435.465 / 435.565
MOZHAYETS 4 27 Sep 05:41:28 05:44:32 18° 271° (W) 05:47:39
HORYU 2 27 Sep 05:42:00 05:44:53 17° 90° (E) 05:47:45 437.375
AIST 2 27 Sep 05:43:39 05:47:47 89° 310° (NW) 05:51:59 435.215
RS-15 27 Sep 05:51:54 06:04:17 78° 235° (SW) 06:16:26 29.354- 29.394
ITAMSAT 1 27 Sep 05:53:40 05:58:22 35° 297° (WNW) 06:03:04 435.822/435.867
Gurwin Techsat 1B 27 Sep 05:54:27 05:57:17 15° 309° (NW) 06:00:08 435.225
BEESAT 3 27 Sep 05:55:14 05:56:50 12° 350° (N) 05:58:26 437.485
PCSat 27 Sep 05:57:53 06:03:15 66° 122° (ESE) 06:08:39 145.827
STRAND 1 27 Sep 06:02:35 06:05:26 15° 52° (NE) 06:08:17 437.568
YUBILEINY 27 Sep 06:10:54 06:18:25 31° 301° (WNW) 06:25:57 435.215
KKS-1 27 Sep 06:14:46 06:16:29 12° 273° (W) 06:18:13 437.445
AO-85 27 Sep 06:22:52 06:27:12 88° 230° (SW) 06:31:12 145.980
AIST 1 27 Sep 06:23:58 06:28:22 78° 100° (E) 06:32:45
NOAA 18 27 Sep 06:41:53 06:44:38 14° 86° (E) 06:47:22 137.9125
AO-7 27 Sep 06:49:03 06:56:59 52° 302° (WNW) 07:04:53 29.400- 29.500
BEESAT 2 27 Sep 06:49:39 06:51:01 11° 356° (N) 06:52:23 435.950
DANDE 27 Sep 06:54:25 07:02:26 51° 68° (ENE) 07:10:21 436.750
GOMX 1 27 Sep 06:56:57 07:00:34 23° 91° (E) 07:04:00 467.674
CUBESAT XI-V 27 Sep 06:58:16 07:01:49 21° 270° (W) 07:05:24 437.345
LilacSat-2 27 Sep 06:59:02 07:01:53 19° 92° (E) 07:04:43 437.200
BRITE-PL 27 Sep 07:02:39 07:07:35 58° 99° (E) 07:12:07 437.365/2234.400
CUSAT 1 27 Sep 07:15:15 07:23:14 75° 262° (W) 07:30:08 437.405
HORYU 2 27 Sep 07:17:28 07:21:54 67° 289° (WNW) 07:26:20 437.375
DOVE 4 27 Sep 07:22:58 07:25:53 18° 89° (E) 07:28:44 437.250
AIST 2 27 Sep 07:23:34 07:26:50 22° 332° (NNW) 07:30:08 435.215
NOAA 15 27 Sep 07:32:53 07:38:04 50° 100° (E) 07:43:12 137.62
BEESAT 3 27 Sep 07:34:12 07:36:08 13° 14° (NNE) 07:38:04 437.485
Cosmos 2504 27 Sep 07:37:47 07:42:39 19° 306° (NW) 07:47:29 435.465 / 435.565
STRAND 1 27 Sep 07:38:43 07:43:49 76° 71° (ENE) 07:48:57 437.568
PCSat 27 Sep 07:42:12 07:47:04 32° 324° (NW) 07:51:58 145.827
Cubesat XI-IV 27 Sep 07:46:00 07:51:16 54° 101° (E) 07:56:30 437.490
CUTE-I 27 Sep 07:46:25 07:51:42 55° 101° (E) 07:56:56 437.470
AIST 1 27 Sep 08:04:03 08:06:33 15° 298° (WNW) 08:09:05
AO-85 27 Sep 08:05:06 08:06:51 12° 251° (WSW) 08:08:32 145.980
RS-15 27 Sep 08:05:33 08:14:51 26° 260° (W) 08:24:02 29.354- 29.394
O/OREOS (USA 219) 27 Sep 08:12:31 08:16:48 41° 109° (ESE) 08:21:07 437.305
NOAA 18 27 Sep 08:20:41 08:26:12 79° 106° (ESE) 08:31:40 137.9125
BEESAT 2 27 Sep 08:27:56 08:30:26 16° 20° (NNE) 08:32:56 435.950
LilacSat-2 27 Sep 08:32:44 08:36:23 43° 290° (WNW) 08:40:02 437.200
GOMX 1 27 Sep 08:34:35 08:38:58 45° 292° (WNW) 08:43:03 467.674
GONETS M04 27 Sep 08:35:29 08:43:04 34° 81° (E) 08:50:39
DANDE 27 Sep 08:37:23 08:45:19 51° 269° (W) 08:53:04 436.750
CINEMA 3 27 Sep 08:40:06 08:43:45 29° 95° (E) 08:47:25 145.822/145.860
BRITE-PL 27 Sep 08:41:44 08:45:40 23° 301° (WNW) 08:49:21 437.365/2234.400
PRISM 27 Sep 08:42:12 08:46:01 35° 66° (ENE) 08:49:51 437.425
HO-68 27 Sep 08:42:30 08:48:50 32° 94° (E) 08:55:06 435.675
AO-7 27 Sep 08:42:51 08:47:59 18° 326° (NW) 08:53:08 29.400- 29.500
COMPASS 1 27 Sep 08:46:52 08:49:04 14° 87° (E) 08:51:17 437.405
Cosmos 2499 27 Sep 08:54:42 09:00:44 31° 84° (E) 09:06:45 435.465 / 435.565
HORYU 2 27 Sep 08:56:11 08:57:39 11° 308° (NW) 08:59:08 437.375
CUSAT 1 27 Sep 08:58:50 09:03:51 19° 285° (WNW) 09:08:30 437.405
DOVE 4 27 Sep 08:59:50 09:04:00 54° 289° (WNW) 09:08:03 437.250
AIST 2 27 Sep 09:05:01 09:06:48 12° 356° (N) 09:08:34 435.215
CUTE 1.7 + AOD 2 27 Sep 09:09:46 09:13:53 43° 98° (E) 09:17:59 437.475
CANX-2 27 Sep 09:10:49 09:15:01 50° 99° (E) 09:19:13 2200.000
BEESAT 3 27 Sep 09:11:18 09:14:56 33° 37° (NE) 09:18:33 437.485
SEEDS 27 Sep 09:12:45 09:16:39 33° 96° (E) 09:20:31 437.485
NOAA 15 27 Sep 09:13:03 09:17:39 30° 300° (WNW) 09:22:13 137.62
STRAND 1 27 Sep 09:20:08 09:23:35 18° 271° (W) 09:27:03 437.568
Cubesat XI-IV 27 Sep 09:26:32 09:31:05 29° 300° (WNW) 09:35:38 437.490
CUTE-I 27 Sep 09:26:57 09:31:28 29° 300° (WNW) 09:36:00 437.470
PCSat 27 Sep 09:28:55 09:32:10 16° 349° (NNW) 09:35:26 145.827
ANTELSAT 27 Sep 09:31:20 09:34:16 18° 59° (ENE) 09:37:12 437.575/2403.000
AAUSAT CUBESAT 2 27 Sep 09:37:32 09:41:22 33° 96° (E) 09:45:11 437.432
TIGRISAT 27 Sep 09:51:22 09:54:52 25° 63° (ENE) 09:58:22 435.000
O/OREOS (USA 219) 27 Sep 09:52:12 09:56:19 32° 310° (NW) 10:00:29 437.305
CUBEBUG 2 27 Sep 09:52:18 09:56:24 45° 99° (E) 10:00:35 437.445
FUNcube-1 27 Sep 10:01:33 10:05:08 25° 93° (E) 10:08:45 145.935
NOAA 18 27 Sep 10:02:14 10:06:18 22° 305° (NW) 10:10:22 137.9125
JAS-2 27 Sep 10:03:07 10:07:04 16° 41° (NE) 10:11:11 435.910
BEESAT 2 27 Sep 10:05:14 10:09:09 48° 42° (NE) 10:13:04 435.950
UWE-3 27 Sep 10:11:53 10:16:02 49° 99° (E) 10:20:17 435.000/436.395/437.385
CINEMA 3 27 Sep 10:17:12 10:20:58 33° 293° (WNW) 10:24:44 145.822/145.860
PRISM 27 Sep 10:17:45 10:21:22 28° 265° (W) 10:25:02 437.425
COMPASS 1 27 Sep 10:20:55 10:25:09 75° 286° (WNW) 10:29:22 437.405
DANDE 27 Sep 10:23:00 10:26:18 13° 289° (WNW) 10:29:34 436.750
HO-68 27 Sep 10:29:57 10:37:01 64° 294° (WNW) 10:44:03 435.675
GONETS M04 27 Sep 10:30:27 10:39:16 69° 284° (WNW) 10:48:10
UNISAT 6 27 Sep 10:30:54 10:35:06 61° 72° (ENE) 10:39:20 437.425
POPSAT HIP 1 27 Sep 10:33:12 10:35:02 13° 55° (NE) 10:36:52 437.405
Oscar 11 27 Sep 10:42:10 10:46:30 62° 101° (E) 10:50:50 145.826/435.025
ZACube-1 27 Sep 10:42:47 10:47:04 65° 102° (ESE) 10:51:26 437.345
AIST 2 27 Sep 10:44:10 10:46:54 17° 20° (NNE) 10:49:38 435.215
CUTE 1.7 + AOD 2 27 Sep 10:46:00 10:49:32 25° 297° (WNW) 10:53:04 437.475
Cosmos 2499 27 Sep 10:46:27 10:53:26 59° 286° (WNW) 11:00:27 435.465 / 435.565
CANX-2 27 Sep 10:47:15 10:50:36 22° 298° (WNW) 10:53:57 2200.000
SEEDS 27 Sep 10:48:32 10:52:19 31° 294° (WNW) 10:56:04 437.485
BEESAT 3 27 Sep 10:48:55 10:52:42 42° 237° (WSW) 10:56:27 437.485
NANOSAT C BR1 27 Sep 10:49:01 10:51:40 17° 58° (ENE) 10:54:20 145.865
DELFI C3 27 Sep 11:03:21 11:07:14 44° 99° (E) 11:11:04 145.870
ANTELSAT 27 Sep 11:06:22 11:10:35 62° 258° (WSW) 11:14:50 437.575/2403.000
HUMSAT D 27 Sep 11:09:18 11:12:59 28° 94° (E) 11:16:41 437.325/437.525
QB50P2 27 Sep 11:10:41 11:14:16 28° 64° (ENE) 11:17:51 145.880/145.840
POLYITAN 1 27 Sep 11:12:55 11:16:29 27° 64° (ENE) 11:20:04 437.675
AAUSAT CUBESAT 2 27 Sep 11:13:07 11:16:48 30° 294° (WNW) 11:20:28 437.432
PCSat 27 Sep 11:14:20 11:17:48 17° 15° (NNE) 11:21:15 145.827
TIGRISAT 27 Sep 11:27:23 11:31:24 41° 262° (W) 11:35:27 435.000
CUBEBUG 2 27 Sep 11:29:26 11:32:49 24° 297° (WNW) 11:36:16 437.445
FUNcube-1 27 Sep 11:37:29 11:41:31 41° 291° (WNW) 11:45:38 145.935
ESTCUBE 1 27 Sep 11:40:49 11:42:30 12° 86° (E) 11:44:10 437.505/2401.250
BEESAT 2 27 Sep 11:43:25 11:46:47 26° 242° (WSW) 11:50:09 435.950
JAS-2 27 Sep 11:43:56 11:50:23 52° 64° (ENE) 11:57:35 435.910
UWE-3 27 Sep 11:48:56 11:52:16 23° 298° (WNW) 11:55:39 435.000/436.395/437.385
DUCHIFAT 1 27 Sep 11:51:10 11:55:15 54° 70° (ENE) 11:59:20 145.980
QB50P1 27 Sep 11:52:32 11:56:42 63° 71° (ENE) 12:00:52 145.935-145.965
BUGSAT 1 27 Sep 11:56:41 12:00:12 29° 65° (ENE) 12:03:44 437.445
COMPASS 1 27 Sep 11:58:33 11:59:58 12° 305° (NW) 12:01:24 437.405
POPSAT HIP 1 27 Sep 12:05:57 12:10:09 84° 74° (ENE) 12:14:23 437.405
UNISAT 6 27 Sep 12:09:28 12:12:15 17° 270° (W) 12:15:02 437.425
HO-68 27 Sep 12:18:52 12:23:30 19° 317° (NW) 12:28:07 435.675
Oscar 11 27 Sep 12:19:09 12:22:15 19° 300° (WNW) 12:25:20 145.826/435.025
ZACube-1 27 Sep 12:20:02 12:22:57 18° 300° (WNW) 12:25:55 437.345
YUBILEINY 27 Sep 12:20:08 12:24:52 15° 43° (NE) 12:29:35 435.215
AIST 2 27 Sep 12:22:13 12:26:19 50° 42° (NE) 12:30:25 435.215
NANOSAT C BR1 27 Sep 12:22:45 12:26:56 70° 257° (WSW) 12:31:08 145.865
AO-7 27 Sep 12:23:40 12:26:35 12° 21° (NNE) 12:29:29 29.400- 29.500
Gurwin Techsat 1B 27 Sep 12:24:08 12:25:47 11° 47° (NE) 12:27:26 435.225
GONETS M04 27 Sep 12:31:51 12:38:04 20° 310° (NW) 12:44:20
SPROUT 27 Sep 12:32:53 12:33:46 11° 85° (E) 12:34:40 437.525
AISAT 27 Sep 12:34:11 12:37:26 20° 91° (E) 12:40:39 437.250
DELFI C3 27 Sep 12:38:41 12:41:50 22° 297° (WNW) 12:44:58 145.870
50 SAT 27 Sep 12:43:43 12:46:30 20° 93° (E) 12:49:15 437.505
HUMSAT D 27 Sep 12:44:47 12:48:40 36° 293° (WNW) 12:52:35 437.325/437.525
Cosmos 2499 27 Sep 12:44:51 12:48:25 14° 312° (NW) 12:52:00 435.465 / 435.565
UKube-1 27 Sep 12:45:07 12:46:54 12° 87° (E) 12:48:42 .
QB50P2 27 Sep 12:46:02 12:49:58 37° 263° (W) 12:53:54 145.880/145.840
POLYITAN 1 27 Sep 12:48:17 12:52:11 37° 263° (W) 12:56:06 437.675
PCSat 27 Sep 12:57:40 13:02:45 38° 40° (NE) 13:07:48 145.827
Oscar 19 27 Sep 13:06:13 13:10:59 38° 64° (ENE) 13:15:45 437.125/150
DX 1 27 Sep 13:11:14 13:14:58 27° 95° (E) 13:18:39 434.975-435.025
ESTCUBE 1 27 Sep 13:15:27 13:20:02 85° 102° (ESE) 13:24:35 437.505/2401.250
VELOX 1 27 Sep 13:17:12 13:21:29 46° 99° (E) 13:25:42 145.980
CUBEBUG 1 27 Sep 13:22:50 13:27:11 68° 102° (ESE) 13:31:29 437.445
DUCHIFAT 1 27 Sep 13:28:20 13:31:16 18° 269° (W) 13:34:13 145.980
JAS-2 27 Sep 13:29:26 13:35:37 40° 267° (W) 13:42:32 435.910
QB50P1 27 Sep 13:30:16 13:32:53 16° 270° (W) 13:35:32 145.935-145.965
AUBIESAT-1 27 Sep 13:30:55 13:33:33 21° 101° (E) 13:36:08 437.475
BUGSAT 1 27 Sep 13:31:48 13:35:32 33° 263° (W) 13:39:15 437.445
Cosmos 2504 27 Sep 13:34:17 13:37:41 13° 48° (NE) 13:41:07 435.465 / 435.565
POPSAT HIP 1 27 Sep 13:44:51 13:46:32 12° 273° (W) 13:48:15 437.405
TISAT 1 27 Sep 13:53:47 13:56:17 15° 89° (E) 13:58:46 437.305
Gurwin Techsat 1B 27 Sep 13:59:28 14:04:37 52° 68° (ENE) 14:09:47 435.225
ITAMSAT 1 27 Sep 13:59:36 14:03:17 20° 55° (NE) 14:06:59 435.822/435.867
AIST 2 27 Sep 14:01:03 14:04:37 27° 242° (WSW) 14:08:11 435.215
PHONESAT 2.4 27 Sep 14:03:38 14:04:44 12° 179° (S) 14:05:50 2401.200-2431.200
SPROUT 27 Sep 14:06:08 14:10:25 84° 104° (ESE) 14:14:41 437.525
M-CUBED/EXP-1 PRIME 27 Sep 14:07:26 14:10:45 72° 109° (ESE) 14:14:00 437.505
AO-7 27 Sep 14:09:52 14:16:46 31° 47° (NE) 14:23:40 29.400- 29.500
AISAT 27 Sep 14:09:55 14:14:15 54° 290° (WNW) 14:18:31 437.250
YUBILEINY 27 Sep 14:15:46 14:24:16 52° 70° (ENE) 14:32:42 435.215
50 SAT 27 Sep 14:16:43 14:20:10 39° 291° (WNW) 14:23:36 437.505
UKube-1 27 Sep 14:19:14 14:23:36 87° 282° (WNW) 14:27:54 .
Cosmos 2491 27 Sep 14:19:47 14:26:16 24° 76° (ENE) 14:32:46 435.465 / 435.565
PCSat 27 Sep 14:41:05 14:46:22 53° 241° (WSW) 14:51:36 145.827
Oscar 19 27 Sep 14:45:28 14:50:18 38° 263° (W) 14:55:10 437.125/150
DX 1 27 Sep 14:47:12 14:51:17 39° 293° (WNW) 14:55:18 434.975-435.025
ESTCUBE 1 27 Sep 14:53:30 14:56:15 16° 304° (NW) 14:58:59 437.505/2401.250
VELOX 1 27 Sep 14:54:08 14:57:43 25° 298° (WNW) 15:01:17 145.980
CUBEBUG 1 27 Sep 15:00:05 15:03:01 18° 302° (WNW) 15:05:55 437.445
AUBIESAT-1 27 Sep 15:05:09 15:08:07 30° 299° (WNW) 15:11:03 437.475
Cosmos 2504 27 Sep 15:25:51 15:33:02 53° 72° (ENE) 15:40:35 435.465 / 435.565
TISAT 1 27 Sep 15:28:14 15:32:23 66° 288° (WNW) 15:36:31 437.305
ITUPSAT 1 27 Sep 15:33:23 15:37:42 32° 95° (E) 15:42:00 437.325
ITAMSAT 1 27 Sep 15:37:00 15:42:11 80° 254° (WSW) 15:47:25 435.822/435.867
Gurwin Techsat 1B 27 Sep 15:40:20 15:44:51 28° 267° (W) 15:49:23 435.225
SPROUT 27 Sep 15:43:27 15:45:47 15° 303° (WNW) 15:48:07 437.525
M-CUBED/EXP-1 PRIME 27 Sep 15:43:32 15:44:50 12° 309° (NW) 15:46:07 437.505
SWISSCUBE 27 Sep 15:46:33 15:51:11 46° 99° (E) 15:55:48 437.505
MOZHAYETS 4 27 Sep 15:54:27 15:55:53 11° 85° (E) 15:57:19
